This demonstration page uses our WeatherBlox Daily Observations layout. Learn more.

Left ArrowRight Arrow

39.51506, -84.39828

Hourly Observations for August 19, 2022

Temp ( °F °C ) Dew Point ( °F °C ) Humidity (%) Winds ( mph kmh ) Pressure ( in mb ) Visibility ( mi km ) Precip ( " mm )
12:15 am 00:15 Clear 62 16.6 N/A N/A Calm 30.01 1016 10 16 0.00 0.00
12:35 am 00:35 Clear 62 16.7 N/A N/A N 3 6 30.01 1016 10 16 0.00 0.00
12:55 am 00:55 Clear 61 16.3 N/A N/A Calm 30.01 1016 10 16 0.00 0.00
1:15 am 01:15 Clear 60 15.8 N/A N/A NNW 3 6 30.02 1016 10 16 0.00 0.00
1:35 am 01:35 Clear 61 15.9 N/A N/A NNW 3 6 30.02 1016 10 16 0.00 0.00
1:55 am 01:55 Clear 61 16.1 N/A N/A Calm 30.01 1016 10 16 0.00 0.00
2:15 am 02:15 Clear 60 15.5 N/A N/A Calm 30.02 1016 10 16 0.00 0.00
2:35 am 02:35 Clear 60 15.5 N/A N/A Calm 30.03 1017 10 16 0.00 0.00
2:55 am 02:55 Clear 60 15.6 N/A N/A Calm 30.02 1017 10 16 0.00 0.00
3:15 am 03:15 Clear 60 15.6 N/A N/A Calm 30.02 1017 10 16 0.00 0.00
3:35 am 03:35 Clear 60 15.3 N/A N/A Calm 30.03 1017 10 16 0.00 0.00
3:55 am 03:55 Clear with Mist and Fog 58 14.7 N/A N/A Calm 30.04 1017 4 6 0.00 0.00
4:15 am 04:15 Clear 59 15.1 N/A N/A Calm 30.04 1017 7 11 0.00 0.00
4:35 am 04:35 Hazy 59 14.9 N/A N/A Calm 30.04 1017 5 8 0.00 0.00
4:55 am 04:55 Clear 59 14.9 N/A N/A Calm 30.04 1017 7 11 0.00 0.00
5:15 am 05:15 Clear 58 14.4 N/A N/A Calm 30.04 1017 10 16 0.00 0.00
5:35 am 05:35 Clear 58 14.5 N/A N/A Calm 30.04 1017 7 11 0.00 0.00
5:55 am 05:55 Clear 58 14.6 N/A N/A Calm 30.04 1017 10 16 0.00 0.00
6:15 am 06:15 Clear 58 14.7 N/A N/A Calm 30.04 1017 10 16 0.00 0.00
6:35 am 06:35 Hazy 58 14.3 N/A N/A Calm 30.04 1017 5 8 0.00 0.00
6:55 am 06:55 Partly Cloudy with Mist and Fog 58 14.2 N/A N/A Calm 30.05 1018 1 1 0.00 0.00
7:15 am 07:15 Sunny 58 14.5 N/A N/A Calm 30.05 1018 7 11 0.00 0.00
7:35 am 07:35 Sunny 59 15 N/A N/A Calm 30.05 1018 10 16 0.00 0.00
7:55 am 07:55 Sunny 60 15.8 N/A N/A Calm 30.05 1018 7 11 0.00 0.00
8:15 am 08:15 Sunny 62 16.8 N/A N/A Calm 30.05 1018 10 16 0.00 0.00
8:35 am 08:35 Sunny 64 17.8 63 17.1 96 96 Calm 30.06 1018 10 16 0.00 0.00
8:55 am 08:55 Sunny 66 18.8 64 17.6 93 93 Calm 30.06 1018 10 16 0.00 0.00
9:15 am 09:15 Sunny 68 20.2 64 17.7 86 86 Calm 30.06 1018 10 16 0.00 0.00
9:35 am 09:35 Sunny 70 21.3 64 17.7 80 80 Calm 30.05 1018 10 16 0.00 0.00
9:55 am 09:55 Sunny 72 22.4 64 17.7 75 75 Calm 30.05 1018 10 16 0.00 0.00
10:15 am 10:15 Sunny 74 23.5 63 17.4 69 69 Calm 30.05 1018 10 16 0.00 0.00
10:35 am 10:35 Sunny 76 24.4 64 17.8 67 67 Calm 30.05 1017 10 16 0.00 0.00
10:55 am 10:55 Sunny 78 25.8 62 16.9 58 58 Calm 30.04 1017 10 16 0.00 0.00
11:15 am 11:15 Sunny 79 26.1 62 16.4 55 55 Calm 30.03 1017 10 16 0.00 0.00
11:35 am 11:35 Sunny 80 26.6 62 16.5 54 54 Calm 30.03 1017 10 16 0.00 0.00
11:55 am 11:55 Sunny 81 27.2 61 16.3 51 51 N 5 7 30.03 1017 10 16 0.00 0.00
12:15 pm 12:15 Sunny 80 26.7 60 15.4 50 50 SSE 3 6 30.03 1017 10 16 0.00 0.00
12:35 pm 12:35 Sunny 81 27.3 57 14.1 44 44 E 3 6 30.02 1017 10 16 0.00 0.00
12:55 pm 12:55 Partly Cloudy 83 28.4 57 13.8 41 41 SW 6 9 30.02 1016 10 16 0.00 0.00
1:15 pm 13:15 Sunny 83 28.6 56 13.5 40 40 W 5 7 30.01 1016 10 16 0.00 0.00
1:35 pm 13:35 Sunny 83 28.6 56 13.6 40 40 WSW 8 13 30.01 1016 10 16 0.00 0.00
1:55 pm 13:55 Sunny 83 28.5 55 12.9 38 38 SW 6 9 30.01 1016 10 16 0.00 0.00
2:10 pm 14:10 Mostly Cloudy 84 29.1 57 13.7 39 39 SSW 3 6 30.01 1016 10 16 0.00 0.00
2:35 pm 14:35 Mostly Cloudy 84 28.9 55 12.8 37 37 Calm 29.99 1016 10 16 0.00 0.00
2:55 pm 14:55 Cloudy 84 28.9 57 13.9 40 40 Calm 29.99 1016 10 16 0.00 0.00
3:15 pm 15:15 Cloudy 84 28.8 56 13.5 39 39 E 5 7 29.99 1015 10 16 0.00 0.00
3:35 pm 15:35 Cloudy 84 28.9 58 14.4 41 41 SE 5 7 29.99 1015 10 16 0.00 0.00
3:55 pm 15:55 Mostly Cloudy 83 28.1 57 13.7 41 41 S 7 11 29.98 1015 10 16 0.00 0.00
4:15 pm 16:15 Partly Cloudy 84 28.9 59 14.9 43 43 SSE 10 17 29.97 1015 10 16 0.00 0.00
4:35 pm 16:35 Sunny 84 28.9 57 14.1 40 40 SE 13 20 29.97 1015 10 16 0.00 0.00
4:55 pm 16:55 Sunny 84 29.1 57 14.1 40 40 ESE 12 19 29.97 1015 10 16 0.00 0.00
5:15 pm 17:15 Sunny 83 28.1 55 13 39 39 SE 8 13 29.98 1015 10 16 0.00 0.00
5:35 pm 17:35 Partly Cloudy 84 28.8 57 14 40 40 SE 9 15 29.96 1015 10 16 0.00 0.00
5:55 pm 17:55 Partly Cloudy 84 28.8 58 14.7 42 42 ESE 10 17 29.96 1015 10 16 0.00 0.00
6:15 pm 18:15 Partly Cloudy 83 28.6 59 14.8 43 43 ESE 7 11 29.97 1015 10 16 0.00 0.00
6:35 pm 18:35 Sunny 83 28.5 59 15 44 44 SE 7 11 29.97 1015 10 16 0.00 0.00
6:55 pm 18:55 Sunny 82 27.9 58 14.7 45 45 SSE 7 11 29.97 1015 10 16 0.00 0.00
7:15 pm 19:15 Sunny 82 27.6 59 15.2 47 47 SE 7 11 29.97 1015 10 16 0.00 0.00
7:35 pm 19:35 Sunny 81 27 59 14.9 48 48 ESE 6 9 29.97 1015 10 16 0.00 0.00
7:55 pm 19:55 Sunny 80 26.5 60 15.5 51 51 E 5 7 29.97 1015 10 16 0.00 0.00
8:15 pm 20:15 Partly Cloudy 78 25.6 60 15.8 55 55 E 6 9 29.97 1015 10 16 0.00 0.00
8:35 pm 20:35 Partly Cloudy 77 25.1 60 15.6 56 56 E 5 7 29.97 1015 10 16 0.00 0.00
8:55 pm 20:55 Partly Cloudy 70 21.3 67 19.3 88 88 Calm 29.99 1016 10 16 0.00 0.00
9:15 pm 21:15 Clear 70 20.9 66 18.8 88 88 NNW 3 6 29.99 1016 10 16 0.00 0.00
9:35 pm 21:35 Clear 68 20.1 66 19.1 94 94 NNW 3 6 29.99 1016 10 16 0.00 0.00
9:55 pm 21:55 Clear 67 19.3 66 19 98 98 Calm 30.01 1016 10 16 0.00 0.00
10:15 pm 22:15 Clear 66 19 66 18.9 99 99 Calm 30.02 1016 10 16 0.00 0.00
10:35 pm 22:35 Clear 66 19.1 65 18.5 96 96 Calm 30.02 1016 10 16 0.00 0.00
10:55 pm 22:55 Clear 65 18.6 64 18 96 96 NW 3 6 30.03 1017 10 16 0.00 0.00
11:15 pm 23:15 Clear 65 18.1 64 18 99 99 Calm 30.03 1017 10 16 0.00 0.00
11:35 pm 23:35 Clear 66 18.7 N/A N/A Calm 30.03 1017 10 16 0.00 0.00
11:55 pm 23:55 Clear 65 18.3 64 18 98 98 Calm 30.04 1017 10 16 0.00 0.00

Powered by AerisWeather